This is the latest recevied weather packets stored in our database for station/object KG5APU. If no packets are shown the sender has not sent any weather packets the latest 10 day(s).
| Time | Temp. | Humidity | Pressure | Rain* | Wind** | Luminosity | Snow |
|---|---|---|---|---|---|---|---|
| 1777431011 | 23.89° C | 94% | 1012.4 hPa | 0 mm | - | 0 W/m² | - |
| 1777430409 | 23.89° C | 94% | 1012.2 hPa | 0 mm | - | 0 W/m² | - |
| 1777429806 | 24.44° C | 93% | 1011.8 hPa | 0 mm | - | 0 W/m² | - |
| 1777429204 | 24.44° C | 93% | 1011.4 hPa | 0 mm | - | 0 W/m² | - |
| 1777428602 | 24.44° C | 93% | 1011.2 hPa | 0 mm | - | 0 W/m² | - |
| 1777427998 | 24.44° C | 93% | 1010.9 hPa | 0 mm | - | 0 W/m² | - |
| 1777427393 | 24.44° C | 92% | 1010.8 hPa | 0 mm | - | 0 W/m² | - |
| 1777426792 | 25° C | 92% | 1010.9 hPa | 0 mm | - | 0 W/m² | - |
| 1777426190 | 25° C | 91% | 1010.6 hPa | 0 mm | - | 0 W/m² | - |
| 1777425587 | 25° C | 91% | 1010.3 hPa | 0 mm | - | 0 W/m² | - |
| 1777424986 | 25° C | 90% | 1009.4 hPa | 0 mm | - | 2 W/m² | - |
| 1777424382 | 25.56° C | 90% | 1009.7 hPa | 0 mm | - | 8 W/m² | - |
| 1777423776 | 25.56° C | 89% | 1009.9 hPa | 0 mm | - | 19 W/m² | - |
| 1777423173 | 25.56° C | 89% | 1009.8 hPa | 0 mm | - | 38 W/m² | - |
| 1777422569 | 25.56° C | 89% | 1009.8 hPa | 0 mm | - | 63 W/m² | - |
| 1777421964 | 25.56° C | 89% | 1010 hPa | 0 mm | - | 83 W/m² | - |
| 1777421361 | 25.56° C | 89% | 1009.8 hPa | 0 mm | - | 74 W/m² | - |
| 1777420760 | 26.11° C | 89% | 1009.6 hPa | 0 mm | - | 99 W/m² | - |
| 1777420159 | 25.56° C | 89% | 1009.5 hPa | 0 mm | - | 88 W/m² | - |
| 1777419558 | 25.56° C | 89% | 1009.4 hPa | 0 mm | - | 104 W/m² | - |
| 1777418954 | 25.56° C | 91% | 1008.7 hPa | 0 mm | - | 115 W/m² | - |
| 1777418352 | 25° C | 91% | 1008.9 hPa | 0 mm | - | 56 W/m² | - |
| 1777417749 | 25° C | 91% | 1008.7 hPa | 0 mm | - | 22 W/m² | - |
| 1777417148 | 25° C | 91% | 1009.4 hPa | 0 mm | - | 10 W/m² | - |
| 1777416545 | 25° C | 91% | 1009.4 hPa | 0 mm | - | 8 W/m² | - |
* Rain latest hour (hover to see other rain measurements)
** Current wind speed in m/s (hover to see current wind gust speed)